Location: Ottawa
(45.4170°N, 75.7000°W)
Time: 03:38:37
(UTC-04:00)

ISS - Pass Details

Date: 19 May 2021
Orbit: 417 x 422 km, 51.6° (Epoch: 13 June)

Event Time Altitude Azimuth Distance (km) Brightness Sun altitude
Rises 00:42:51 0° 297° (WNW) 2,370 0.5 -24.7°
Reaches altitude 10° 00:45:04 10° 306° (NW) 1,505 -0.5 -24.7°
Enters shadow 00:48:09 34° 12° (NNE) 711 -2.1 -24.7°
